Location: Newark
(43.6583°N, 1.6617°E)
Time: 22:01:40
(UTC+00:00)

Transit 4A - Visible Passes

Search period start: 25 August 2019 00:00
Search period end: 04 September 2019 00:00
Orbit: 864 x 981 km, 66.8° (Epoch: 25 August)

Date Brightness Start Highest point End Pass type
(mag) Time Alt. Az. Time Alt. Az. Time Alt. Az.
25 Aug 9.0 01:26:47 10° NNW 01:32:40 42° NE 01:38:21 10° ESE visible
25 Aug 8.3 03:13:22 10° NW 03:18:58 38° WSW 03:21:51 24° SSW visible
25 Aug 10.8 20:12:31 10° NW 20:15:08 13° NNW 20:17:45 10° N visible
25 Aug 10.4 23:50:43 10° N 23:54:22 16° NNE 23:57:58 10° ENE visible
26 Aug 8.3 01:36:02 10° NNW 01:42:10 58° NE 01:44:19 38° ESE visible
26 Aug 8.8 03:23:11 10° NW 03:27:40 25° W 03:27:40 25° W visible
26 Aug 11.0 20:24:18 10° NNW 20:25:08 10° NNW 20:25:57 10° NNW visible
26 Aug 10.1 23:59:43 10° N 00:04:12 20° NE 00:08:05 12° E visible
27 Aug 7.8 01:45:21 10° NNW 01:51:28 81° NE 01:51:28 81° NE visible
27 Aug 9.6 03:33:24 10° WNW 03:34:52 14° WNW 03:34:52 14° WNW visible
28 Aug 9.7 00:08:48 10° NNW 00:13:56 26° NE 00:15:46 23° ENE visible
28 Aug 8.4 01:54:45 10° NW 01:59:11 48° NW 01:59:11 48° NW visible
28 Aug 10.6 22:33:29 10° N 22:35:07 11° NNE 22:36:45 10° NE visible
29 Aug 9.2 00:17:57 10° NNW 00:23:35 34° NE 00:23:46 34° NE visible
29 Aug 9.2 02:04:15 10° NW 02:07:12 28° NW 02:07:12 28° NW visible
29 Aug 10.6 19:02:28 10° WNW 19:05:49 14° NNW 19:09:08 10° N visible
29 Aug 10.4 22:42:05 10° N 22:45:05 14° NNE 22:48:02 10° ENE visible
30 Aug 8.9 00:27:09 10° NNW 00:31:59 42° NNE 00:31:59 42° NNE visible
30 Aug 9.7 02:13:55 10° NW 02:15:26 17° WNW 02:15:26 17° WNW visible
30 Aug 10.7 19:13:40 10° NW 19:15:46 12° NNW 19:17:52 10° N visible
30 Aug 10.1 22:51:00 10° N 22:54:58 17° NNE 22:56:53 15° NE visible
31 Aug 9.0 00:36:26 10° NNW 00:40:20 39° NNW 00:40:20 39° NNW visible
31 Aug 9.7 23:00:02 10° NNW 23:04:45 22° NE 23:05:20 22° NE visible
01 Sep 9.3 00:45:47 10° NNW 00:48:48 31° NNW 00:48:48 31° NNW visible
01 Sep 9.5 23:09:08 10° NNW 23:13:53 28° NNE 23:13:53 28° NNE visible
02 Sep 9.7 00:55:12 10° NW 00:57:21 22° NW 00:57:21 22° NW visible
02 Sep 10.3 21:33:35 10° N 21:35:45 12° NNE 21:37:54 10° NE visible
02 Sep 9.3 23:18:19 10° NNW 23:22:29 33° NNE 23:22:29 33° NNE visible
03 Sep 10.0 01:04:46 10° NW 01:05:58 16° NW 01:05:58 16° NW visible
03 Sep 10.1 21:42:20 10° N 21:45:41 15° NNE 21:47:41 13° NE visible
03 Sep 9.3 23:27:32 10° NNW 23:31:09 34° N 23:31:09 34° N visible
